LHX02A LEVC-EDDM

Flight info

Callsign LHX02A
Flight time 1h 52m
Altitude 38000
Route ORVUS M871 PTC DCT CDP DCT CHELY DCT LUMAS DCT UNANA DCT STP DCT RAPED DCT PIGOS DCT EKSID DCT NOSTA DCT NOPMU DCT TAGIP DCT GUNGO DCT TISAX DCT IVKAL T102 NINUR T101 BETOS BETOS1B
Aircraft A320/M-SDE3FGHIRWY/LB1

Departure

Time 2026-05-06 20:03
Airport Valencia Airport (LEVC)

Arrival

Time 2026-05-06 21:55
Airport Munich Airport (EDDM)
Time Latitude Longitude Altitude Speed Heading
2026-05-06 19:46 39.49099 -0.47485 209 ft 0 kts 45°
2026-05-06 19:52 39.49097 -0.47488 209 ft 3 kts 44°
2026-05-06 19:52 39.49077 -0.47511 217 ft 4 kts 33°
2026-05-06 19:52 39.49053 -0.47527 209 ft 4 kts 15°
2026-05-06 19:53 39.49028 -0.47530 209 ft 4 kts 339°
2026-05-06 19:53 39.49014 -0.47518 214 ft 0 kts 296°
2026-05-06 19:55 39.49016 -0.47522 209 ft 3 kts 296°
2026-05-06 19:55 39.49036 -0.47574 215 ft 7 kts 296°
2026-05-06 19:56 39.49056 -0.47630 211 ft 6 kts 290°
2026-05-06 19:56 39.49055 -0.47698 209 ft 10 kts 257°
2026-05-06 19:56 39.49039 -0.47783 211 ft 9 kts 257°
2026-05-06 19:56 39.49028 -0.47860 213 ft 8 kts 268°
2026-05-06 19:57 39.49043 -0.47925 211 ft 7 kts 294°
2026-05-06 19:57 39.49064 -0.47981 214 ft 7 kts 296°
2026-05-06 19:57 39.49087 -0.48042 213 ft 10 kts 296°
2026-05-06 19:57 39.49126 -0.48144 212 ft 16 kts 296°
2026-05-06 19:58 39.49182 -0.48291 213 ft 20 kts 296°
2026-05-06 19:58 39.49245 -0.48456 213 ft 21 kts 296°
2026-05-06 19:58 39.49307 -0.48620 210 ft 20 kts 296°
2026-05-06 19:58 39.49366 -0.48776 209 ft 18 kts 296°
2026-05-06 19:59 39.49420 -0.48917 211 ft 17 kts 296°
2026-05-06 19:59 39.49470 -0.49047 214 ft 16 kts 296°
2026-05-06 19:59 39.49515 -0.49167 213 ft 14 kts 296°
2026-05-06 19:59 39.49559 -0.49281 213 ft 15 kts 296°
2026-05-06 20:00 39.49614 -0.49424 214 ft 19 kts 297°
2026-05-06 20:00 39.49670 -0.49574 215 ft 18 kts 296°
2026-05-06 20:00 39.49722 -0.49710 212 ft 16 kts 296°
2026-05-06 20:00 39.49768 -0.49833 210 ft 14 kts 296°
2026-05-06 20:01 39.49798 -0.49932 215 ft 9 kts 266°
2026-05-06 20:01 39.49758 -0.49978 210 ft 7 kts 206°
2026-05-06 20:01 39.49724 -0.50000 211 ft 4 kts 206°
2026-05-06 20:01 39.49688 -0.50023 217 ft 7 kts 206°
2026-05-06 20:02 39.49647 -0.50026 213 ft 6 kts 152°
2026-05-06 20:02 39.49626 -0.49986 212 ft 5 kts 116°
2026-05-06 20:02 39.49595 -0.49907 219 ft 24 kts 116°
2026-05-06 20:02 39.49402 -0.49396 215 ft 98 kts 116°
2026-05-06 20:03 39.49014 -0.48375 215 ft 153 kts 116°
2026-05-06 20:03 39.48530 -0.47110 768 ft 158 kts 116°
2026-05-06 20:03 39.48019 -0.45861 1546 ft 157 kts 117°
2026-05-06 20:03 39.47495 -0.44598 2190 ft 166 kts 118°
2026-05-06 20:04 39.46845 -0.43267 2630 ft 183 kts 126°
2026-05-06 20:04 39.46042 -0.41875 3022 ft 205 kts 128°
2026-05-06 20:04 39.45105 -0.40344 3498 ft 228 kts 129°
2026-05-06 20:04 39.44062 -0.38664 4038 ft 250 kts 128°
2026-05-06 20:05 39.43166 -0.36694 4876 ft 259 kts 110°
2026-05-06 20:05 39.42776 -0.34389 5749 ft 265 kts 99°
2026-05-06 20:05 39.42502 -0.32020 6691 ft 269 kts 98°
2026-05-06 20:05 39.42241 -0.29629 7500 ft 276 kts 97°
2026-05-06 20:06 39.41964 -0.27135 8300 ft 284 kts 98°
2026-05-06 20:06 39.41671 -0.24578 9138 ft 290 kts 98°
2026-05-06 20:06 39.41361 -0.21969 9967 ft 297 kts 98°
2026-05-06 20:06 39.41032 -0.19257 10436 ft 316 kts 98°
2026-05-06 20:07 39.40674 -0.16343 10735 ft 340 kts 99°
2026-05-06 20:07 39.40288 -0.13225 11039 ft 361 kts 99°
2026-05-06 20:07 39.39886 -0.09979 11650 ft 369 kts 99°
2026-05-06 20:07 39.39475 -0.06676 12375 ft 375 kts 99°
2026-05-06 20:08 39.39061 -0.03377 13106 ft 379 kts 99°
2026-05-06 20:08 39.38633 0.00010 13840 ft 384 kts 100°
2026-05-06 20:08 39.38198 0.03442 14444 ft 390 kts 100°
2026-05-06 20:08 39.37757 0.06923 15075 ft 395 kts 100°
2026-05-06 20:09 39.37314 0.10444 15706 ft 399 kts 100°
2026-05-06 20:09 39.36866 0.13998 16333 ft 403 kts 100°
2026-05-06 20:09 39.36413 0.17595 16943 ft 408 kts 100°
2026-05-06 20:09 39.35957 0.21233 17551 ft 412 kts 100°
2026-05-06 20:10 39.35500 0.24857 18131 ft 416 kts 101°
2026-05-06 20:10 39.35030 0.28563 18649 ft 420 kts 101°
2026-05-06 20:10 39.34553 0.32296 19205 ft 423 kts 101°
2026-05-06 20:10 39.34069 0.36056 19733 ft 426 kts 101°
2026-05-06 20:11 39.33582 0.39847 20230 ft 430 kts 101°
2026-05-06 20:11 39.33179 0.43689 20696 ft 435 kts 95°
2026-05-06 20:11 39.33125 0.47617 21174 ft 440 kts 90°
2026-05-06 20:11 39.33258 0.51579 21658 ft 444 kts 87°
2026-05-06 20:12 39.33506 0.55572 22133 ft 448 kts 86°
2026-05-06 20:12 39.33787 0.59537 22593 ft 451 kts 86°
2026-05-06 20:12 39.34058 0.63589 23059 ft 455 kts 87°
2026-05-06 20:12 39.34294 0.67675 23507 ft 458 kts 88°
2026-05-06 20:13 39.34493 0.71794 23882 ft 461 kts 88°
2026-05-06 20:13 39.34665 0.75952 24234 ft 465 kts 89°
2026-05-06 20:13 39.34827 0.80142 24513 ft 470 kts 89°
2026-05-06 20:13 39.34991 0.84381 24877 ft 473 kts 89°
2026-05-06 20:14 39.35156 0.88578 25270 ft 475 kts 89°
2026-05-06 20:14 39.35330 0.92857 25632 ft 478 kts 89°
2026-05-06 20:14 39.35513 0.97163 25965 ft 482 kts 89°
2026-05-06 20:14 39.35699 1.01498 26297 ft 485 kts 89°
2026-05-06 20:15 39.35882 1.05867 26622 ft 489 kts 89°
2026-05-06 20:15 39.36060 1.10267 26938 ft 492 kts 89°
2026-05-06 20:15 39.36234 1.14696 27235 ft 495 kts 89°
2026-05-06 20:15 39.36407 1.19160 27506 ft 499 kts 90°
2026-05-06 20:16 39.36582 1.23658 27789 ft 503 kts 90°
2026-05-06 20:16 39.36759 1.28182 28081 ft 506 kts 90°
2026-05-06 20:16 39.37083 1.32669 28358 ft 511 kts 83°
2026-05-06 20:16 39.37914 1.37157 28635 ft 517 kts 73°
2026-05-06 20:17 39.39274 1.41471 28911 ft 520 kts 63°
2026-05-06 20:17 39.41131 1.45491 29187 ft 523 kts 53°
2026-05-06 20:17 39.43438 1.49127 29489 ft 522 kts 44°
2026-05-06 20:17 39.45990 1.52463 29863 ft 522 kts 43°
2026-05-06 20:18 39.48546 1.55813 30175 ft 524 kts 43°
2026-05-06 20:18 39.51097 1.59177 30502 ft 524 kts 43°
2026-05-06 20:18 39.53647 1.62546 30860 ft 523 kts 43°
2026-05-06 20:18 39.56158 1.65865 31224 ft 522 kts 43°
2026-05-06 20:19 39.58702 1.69227 31607 ft 522 kts 43°
2026-05-06 20:19 39.61245 1.72588 31955 ft 522 kts 43°
2026-05-06 20:19 39.63785 1.75942 32313 ft 521 kts 43°
2026-05-06 20:19 39.66326 1.79296 32678 ft 521 kts 42°
2026-05-06 20:20 39.68862 1.82650 33038 ft 520 kts 42°
2026-05-06 20:20 39.71392 1.86004 33396 ft 520 kts 42°
2026-05-06 20:20 39.73915 1.89359 33766 ft 519 kts 43°
2026-05-06 20:20 39.76435 1.92716 34109 ft 518 kts 42°
2026-05-06 20:21 39.78911 1.96013 34485 ft 516 kts 42°
2026-05-06 20:21 39.81418 1.99348 34794 ft 516 kts 42°
2026-05-06 20:21 39.83922 2.02684 35089 ft 515 kts 42°
2026-05-06 20:21 39.86424 2.06023 35400 ft 514 kts 42°
2026-05-06 20:22 39.88916 2.09351 35714 ft 513 kts 43°
2026-05-06 20:22 39.91403 2.12677 36012 ft 512 kts 43°
2026-05-06 20:22 39.93885 2.16000 36308 ft 511 kts 43°
2026-05-06 20:22 39.96358 2.19315 36603 ft 510 kts 43°
2026-05-06 20:23 39.98792 2.22581 36886 ft 509 kts 43°
2026-05-06 20:23 40.01255 2.25884 37189 ft 507 kts 43°
2026-05-06 20:23 40.03710 2.29180 37443 ft 506 kts 43°
2026-05-06 20:23 40.06164 2.32478 37699 ft 506 kts 43°
2026-05-06 20:24 40.08610 2.35777 37926 ft 506 kts 43°
2026-05-06 20:24 40.11052 2.39077 37975 ft 506 kts 43°
2026-05-06 20:24 40.15938 2.45681 37975 ft 505 kts 43°
2026-05-06 20:25 40.20784 2.52248 37975 ft 505 kts 44°
2026-05-06 20:25 40.25656 2.58869 37973 ft 505 kts 44°
2026-05-06 20:26 40.30526 2.65495 37977 ft 505 kts 44°
2026-05-06 20:26 40.35396 2.72127 37965 ft 505 kts 44°
2026-05-06 20:27 40.40262 2.78775 37969 ft 505 kts 44°
2026-05-06 20:27 40.45091 2.85389 37991 ft 505 kts 44°
2026-05-06 20:28 40.49947 2.92066 37987 ft 505 kts 44°
2026-05-06 20:28 40.54801 2.98751 37985 ft 505 kts 44°
2026-05-06 20:29 40.59658 3.05439 37984 ft 505 kts 44°
2026-05-06 20:29 40.64479 3.12099 37980 ft 506 kts 44°
2026-05-06 20:30 40.71751 3.22180 37982 ft 506 kts 44°
2026-05-06 20:31 40.76596 3.28920 37985 ft 506 kts 44°
2026-05-06 20:31 40.81440 3.35671 37987 ft 506 kts 44°
2026-05-06 20:32 40.86280 3.42433 38011 ft 506 kts 44°
2026-05-06 20:32 40.91085 3.49155 38013 ft 506 kts 44°
2026-05-06 20:33 40.95915 3.55925 38007 ft 506 kts 44°
2026-05-06 20:33 41.00746 3.62705 38001 ft 506 kts 44°
2026-05-06 20:34 41.05563 3.69496 37997 ft 506 kts 45°
2026-05-06 20:34 41.10346 3.76253 38030 ft 506 kts 44°
2026-05-06 20:35 41.15153 3.83053 38003 ft 505 kts 45°
2026-05-06 20:35 41.19955 3.89860 38003 ft 505 kts 45°
2026-05-06 20:36 41.24746 3.96679 38000 ft 505 kts 45°
2026-05-06 20:36 41.29505 4.03460 38017 ft 505 kts 45°
2026-05-06 20:37 41.34291 4.10287 38020 ft 504 kts 45°
2026-05-06 20:37 41.39062 4.17123 38006 ft 504 kts 45°
2026-05-06 20:38 41.43830 4.23971 37991 ft 504 kts 45°
2026-05-06 20:38 41.48563 4.30786 38025 ft 504 kts 45°
2026-05-06 20:39 41.53321 4.37659 38022 ft 504 kts 45°
2026-05-06 20:39 41.58076 4.44537 38017 ft 504 kts 45°
2026-05-06 20:40 41.62831 4.51419 38010 ft 504 kts 45°
2026-05-06 20:40 41.67550 4.58259 37994 ft 504 kts 45°
2026-05-06 20:41 41.72301 4.65155 38017 ft 504 kts 45°
2026-05-06 20:41 41.77136 4.71945 38012 ft 503 kts 43°
2026-05-06 20:42 41.82161 4.78477 38007 ft 503 kts 41°
2026-05-06 20:42 41.87210 4.84966 38006 ft 503 kts 42°
2026-05-06 20:43 41.92170 4.91506 38020 ft 503 kts 43°
2026-05-06 20:43 41.97125 4.98135 38000 ft 503 kts 43°
2026-05-06 20:44 42.02086 5.04770 37993 ft 503 kts 43°
2026-05-06 20:44 42.07048 5.11405 37994 ft 503 kts 42°
2026-05-06 20:45 42.12018 5.18041 38022 ft 503 kts 43°
2026-05-06 20:45 42.16944 5.24637 38017 ft 502 kts 43°
2026-05-06 20:46 42.21893 5.31285 38012 ft 502 kts 43°
2026-05-06 20:46 42.26838 5.37943 37989 ft 502 kts 43°
2026-05-06 20:47 42.30942 5.43486 38010 ft 502 kts 43°
2026-05-06 20:47 42.35876 5.50169 38003 ft 502 kts 43°
2026-05-06 20:48 42.41606 5.57948 37994 ft 502 kts 43°
2026-05-06 20:48 42.46531 5.64649 37993 ft 502 kts 43°
2026-05-06 20:49 42.50623 5.70226 38011 ft 502 kts 43°
2026-05-06 20:49 42.55545 5.76943 37983 ft 502 kts 43°
2026-05-06 20:50 42.60463 5.83669 37985 ft 502 kts 43°
2026-05-06 20:50 42.65371 5.90412 37981 ft 502 kts 43°
2026-05-06 20:51 42.70281 5.97164 37979 ft 502 kts 43°
2026-05-06 20:51 42.75150 6.03883 37976 ft 502 kts 43°
2026-05-06 20:52 42.80049 6.10665 37940 ft 502 kts 44°
2026-05-06 20:52 42.84947 6.17441 37950 ft 502 kts 41°
2026-05-06 20:53 42.90237 6.23606 37981 ft 500 kts 37°
2026-05-06 20:53 42.95535 6.29661 37976 ft 500 kts 37°
2026-05-06 20:54 43.00858 6.35778 37972 ft 500 kts 38°
2026-05-06 20:54 43.06175 6.41912 37985 ft 500 kts 38°
2026-05-06 20:55 43.11497 6.48057 37952 ft 500 kts 38°
2026-05-06 20:55 43.16811 6.54216 37947 ft 501 kts 38°
2026-05-06 20:56 43.21959 6.60555 37932 ft 503 kts 47°
2026-05-06 20:56 43.26174 6.68205 37936 ft 503 kts 53°
2026-05-06 20:57 43.30294 6.75985 37921 ft 504 kts 53°
2026-05-06 20:57 43.34415 6.83768 37914 ft 504 kts 53°
2026-05-06 20:58 43.38522 6.91575 37895 ft 504 kts 54°
2026-05-06 20:58 43.42596 6.99348 37933 ft 504 kts 54°
2026-05-06 20:59 43.46687 7.07183 37927 ft 504 kts 54°
2026-05-06 20:59 43.50774 7.15034 37920 ft 504 kts 54°
2026-05-06 21:00 43.54859 7.22885 37905 ft 504 kts 54°
2026-05-06 21:00 43.58912 7.30698 37897 ft 504 kts 54°
2026-05-06 21:01 43.62976 7.38580 37912 ft 504 kts 54°
2026-05-06 21:01 43.67046 7.46463 37894 ft 504 kts 54°
2026-05-06 21:02 43.71116 7.54357 37884 ft 504 kts 54°
2026-05-06 21:02 43.75144 7.62208 37854 ft 504 kts 54°
2026-05-06 21:03 43.79193 7.70128 37875 ft 505 kts 55°
2026-05-06 21:03 43.83787 7.77425 37876 ft 503 kts 39°
2026-05-06 21:04 43.89285 7.83393 37864 ft 502 kts 36°
2026-05-06 21:04 43.94765 7.89305 37865 ft 503 kts 39°
2026-05-06 21:05 43.99846 7.96001 37894 ft 504 kts 43°
2026-05-06 21:05 44.04888 8.02795 37864 ft 505 kts 43°
2026-05-06 21:06 44.09945 8.09596 37867 ft 506 kts 43°
2026-05-06 21:06 44.14967 8.16362 37899 ft 506 kts 43°
2026-05-06 21:07 44.20010 8.23200 37900 ft 506 kts 43°
2026-05-06 21:07 44.25046 8.30042 37897 ft 505 kts 43°
2026-05-06 21:08 44.30079 8.36887 37865 ft 505 kts 43°
2026-05-06 21:08 44.35097 8.43734 37898 ft 504 kts 44°
2026-05-06 21:09 44.40069 8.50539 37936 ft 503 kts 44°
2026-05-06 21:09 44.45067 8.57385 37934 ft 502 kts 44°
2026-05-06 21:10 44.50057 8.64229 37934 ft 502 kts 44°
2026-05-06 21:10 44.55040 8.71093 37944 ft 502 kts 44°
2026-05-06 21:11 44.60016 8.77963 37919 ft 502 kts 44°
2026-05-06 21:11 44.64947 8.84802 37925 ft 502 kts 44°
2026-05-06 21:12 44.69912 8.91693 37932 ft 502 kts 44°
2026-05-06 21:12 44.74869 8.98589 37931 ft 501 kts 44°
2026-05-06 21:13 44.79826 9.05494 37920 ft 501 kts 44°
2026-05-06 21:13 44.84772 9.12409 37937 ft 501 kts 44°
2026-05-06 21:14 44.89675 9.19300 37902 ft 501 kts 44°
2026-05-06 21:14 44.94617 9.26252 37891 ft 502 kts 44°
2026-05-06 21:15 44.99566 9.33230 37889 ft 503 kts 44°
2026-05-06 21:15 45.04525 9.40234 37903 ft 505 kts 44°
2026-05-06 21:16 45.09489 9.47266 37891 ft 506 kts 45°
2026-05-06 21:16 45.14421 9.54275 37886 ft 506 kts 45°
2026-05-06 21:17 45.19389 9.61355 37892 ft 506 kts 44°
2026-05-06 21:17 45.24350 9.68440 37885 ft 506 kts 45°
2026-05-06 21:18 45.29303 9.75527 37906 ft 505 kts 45°
2026-05-06 21:18 45.34213 9.82578 37914 ft 505 kts 45°
2026-05-06 21:19 45.39148 9.89681 37895 ft 504 kts 45°
2026-05-06 21:19 45.44074 9.96785 37898 ft 504 kts 45°
2026-05-06 21:20 45.48990 10.03903 37896 ft 504 kts 45°
2026-05-06 21:20 45.53862 10.10975 37903 ft 503 kts 45°
2026-05-06 21:21 45.58767 10.18098 37900 ft 503 kts 45°
2026-05-06 21:21 45.63662 10.25242 37877 ft 503 kts 45°
2026-05-06 21:22 45.68547 10.32403 37891 ft 503 kts 45°
2026-05-06 21:22 45.73435 10.39574 37905 ft 503 kts 45°
2026-05-06 21:23 45.78321 10.46740 37926 ft 503 kts 45°
2026-05-06 21:23 45.83163 10.53872 37923 ft 502 kts 45°
2026-05-06 21:24 45.88018 10.61072 37946 ft 502 kts 45°
2026-05-06 21:24 45.92996 10.68072 37963 ft 500 kts 37°
2026-05-06 21:25 45.98889 10.73243 37963 ft 496 kts 26°
2026-05-06 21:25 46.04970 10.77896 37927 ft 495 kts 26°
2026-05-06 21:26 46.11037 10.82587 37975 ft 494 kts 26°
2026-05-06 21:26 46.17052 10.87242 37991 ft 493 kts 26°
2026-05-06 21:27 46.23092 10.91908 37995 ft 492 kts 26°
2026-05-06 21:27 46.29128 10.96579 38007 ft 492 kts 26°
2026-05-06 21:28 46.35150 11.01267 38002 ft 491 kts 26°
2026-05-06 21:28 46.41376 11.05230 37948 ft 487 kts 12°
2026-05-06 21:29 46.47974 11.06492 37949 ft 479 kts 356°
2026-05-06 21:29 46.54644 11.06480 37931 ft 479 kts 356°
2026-05-06 21:30 46.61317 11.06484 37928 ft 479 kts 356°
2026-05-06 21:30 46.67940 11.05868 37949 ft 476 kts 349°
2026-05-06 21:31 46.74511 11.04644 37938 ft 476 kts 349°
2026-05-06 21:31 46.81085 11.03416 37962 ft 476 kts 349°
2026-05-06 21:32 46.87612 11.02176 37931 ft 477 kts 349°
2026-05-06 21:32 46.97542 11.01306 37912 ft 482 kts
2026-05-06 21:33 47.04220 11.02317 37914 ft 483 kts
2026-05-06 21:33 47.10895 11.03336 37910 ft 483 kts
2026-05-06 21:34 47.17573 11.04357 37908 ft 483 kts
2026-05-06 21:34 47.24256 11.05374 37903 ft 483 kts
2026-05-06 21:35 47.27567 11.05877 37535 ft 485 kts
2026-05-06 21:35 47.30919 11.06391 37002 ft 485 kts
2026-05-06 21:35 47.34282 11.06909 36472 ft 487 kts
2026-05-06 21:35 47.37659 11.07428 35961 ft 489 kts
2026-05-06 21:36 47.41044 11.07946 35390 ft 490 kts
2026-05-06 21:36 47.44439 11.08464 34668 ft 492 kts
2026-05-06 21:36 47.47847 11.08985 33921 ft 494 kts
2026-05-06 21:36 47.51268 11.09510 32972 ft 495 kts
2026-05-06 21:37 47.54688 11.10270 31686 ft 506 kts 10°
2026-05-06 21:37 47.58071 11.11881 30254 ft 516 kts 21°
2026-05-06 21:37 47.61292 11.14368 28781 ft 527 kts 30°
2026-05-06 21:37 47.64439 11.17189 27627 ft 529 kts 33°
2026-05-06 21:38 47.67298 11.20414 26910 ft 518 kts 39°
2026-05-06 21:38 47.70063 11.23698 25916 ft 502 kts 39°
2026-05-06 21:38 47.72752 11.26897 24837 ft 489 kts 39°
2026-05-06 21:38 47.75375 11.30028 23768 ft 478 kts 40°
2026-05-06 21:39 47.77940 11.33095 22602 ft 468 kts 40°
2026-05-06 21:39 47.80445 11.36101 21375 ft 458 kts 40°
2026-05-06 21:39 47.82892 11.39044 20196 ft 448 kts 40°
2026-05-06 21:39 47.85291 11.41930 19054 ft 439 kts 40°
2026-05-06 21:40 47.87640 11.44754 18200 ft 427 kts 40°
2026-05-06 21:40 47.89933 11.47509 17328 ft 422 kts 40°
2026-05-06 21:40 47.92176 11.50211 16653 ft 419 kts 39°
2026-05-06 21:40 47.94426 11.52926 16136 ft 413 kts 39°
2026-05-06 21:41 47.96505 11.55829 15636 ft 406 kts 52°
2026-05-06 21:41 47.98205 11.59138 15238 ft 398 kts 54°
2026-05-06 21:41 47.99841 11.62420 14845 ft 391 kts 54°
2026-05-06 21:41 48.01443 11.65657 14461 ft 385 kts 54°
2026-05-06 21:42 48.03018 11.68860 14067 ft 379 kts 54°
2026-05-06 21:42 48.04558 11.72015 13675 ft 373 kts 54°
2026-05-06 21:42 48.06073 11.75132 13257 ft 368 kts 54°
2026-05-06 21:42 48.07545 11.78166 12835 ft 363 kts 54°
2026-05-06 21:43 48.09017 11.81205 12421 ft 359 kts 54°
2026-05-06 21:43 48.10474 11.84208 12010 ft 354 kts 54°
2026-05-06 21:43 48.11913 11.87175 11598 ft 350 kts 54°
2026-05-06 21:43 48.13334 11.90107 11223 ft 346 kts 54°
2026-05-06 21:44 48.14711 11.92948 10966 ft 328 kts 54°
2026-05-06 21:44 48.16024 11.95656 10729 ft 316 kts 54°
2026-05-06 21:44 48.17306 11.98303 10429 ft 309 kts 54°
2026-05-06 21:44 48.18543 12.00857 10143 ft 297 kts 54°
2026-05-06 21:45 48.19736 12.03313 9857 ft 286 kts 54°
2026-05-06 21:45 48.20876 12.05663 9540 ft 280 kts 54°
2026-05-06 21:45 48.22014 12.08020 9218 ft 279 kts 54°
2026-05-06 21:45 48.23133 12.10377 8908 ft 276 kts 54°
2026-05-06 21:46 48.24232 12.12728 8594 ft 274 kts 54°
2026-05-06 21:46 48.25310 12.15072 8280 ft 272 kts 54°
2026-05-06 21:46 48.26366 12.17407 7979 ft 269 kts 54°
2026-05-06 21:46 48.27416 12.19717 7676 ft 266 kts 49°
2026-05-06 21:47 48.28785 12.21476 7399 ft 254 kts 22°
2026-05-06 21:47 48.30408 12.22250 7178 ft 238 kts 359°
2026-05-06 21:47 48.32000 12.22073 6961 ft 223 kts 337°
2026-05-06 21:47 48.33356 12.21119 6736 ft 210 kts 318°
2026-05-06 21:48 48.34361 12.19623 6518 ft 200 kts 301°
2026-05-06 21:48 48.34981 12.17807 6301 ft 193 kts 286°
2026-05-06 21:48 48.35292 12.15858 6065 ft 191 kts 282°
2026-05-06 21:48 48.35576 12.13942 5843 ft 190 kts 282°
2026-05-06 21:49 48.35862 12.12021 5615 ft 188 kts 282°
2026-05-06 21:49 48.36141 12.10161 5400 ft 174 kts 282°
2026-05-06 21:49 48.36384 12.08484 5165 ft 154 kts 278°
2026-05-06 21:49 48.36389 12.06963 5037 ft 139 kts 268°
2026-05-06 21:50 48.36324 12.05530 4854 ft 136 kts 267°
2026-05-06 21:50 48.36239 12.04125 4681 ft 134 kts 267°
2026-05-06 21:50 48.36146 12.02757 4485 ft 126 kts 266°
2026-05-06 21:50 48.36057 12.01494 4311 ft 118 kts 266°
2026-05-06 21:51 48.35969 12.00285 4151 ft 115 kts 266°
2026-05-06 21:51 48.35883 11.99117 3997 ft 113 kts 267°
2026-05-06 21:51 48.35798 11.97958 3853 ft 111 kts 267°
2026-05-06 21:51 48.35712 11.96809 3695 ft 111 kts 266°
2026-05-06 21:52 48.35626 11.95657 3551 ft 111 kts 265°
2026-05-06 21:52 48.35540 11.94509 3405 ft 110 kts 265°
2026-05-06 21:52 48.35455 11.93365 3261 ft 110 kts 265°
2026-05-06 21:52 48.35369 11.92226 3114 ft 110 kts 265°
2026-05-06 21:53 48.35283 11.91084 2961 ft 110 kts 264°
2026-05-06 21:53 48.35194 11.89903 2823 ft 121 kts 265°
2026-05-06 21:53 48.35097 11.88607 2639 ft 127 kts 263°
2026-05-06 21:53 48.34997 11.87301 2450 ft 128 kts 263°
2026-05-06 21:54 48.34893 11.85944 2243 ft 131 kts 263°
2026-05-06 21:54 48.34792 11.84605 2046 ft 130 kts 263°
2026-05-06 21:54 48.34690 11.83256 1871 ft 129 kts 262°
2026-05-06 21:54 48.34587 11.81931 1727 ft 131 kts 261°
2026-05-06 21:55 48.34491 11.80596 1543 ft 127 kts 261°
2026-05-06 21:55 48.34393 11.79344 1475 ft 107 kts 263°
2026-05-06 21:55 48.34330 11.78495 1485 ft 57 kts 263°
2026-05-06 21:55 48.34308 11.78139 1481 ft 22 kts 274°
2026-05-06 21:56 48.34335 11.77916 1482 ft 22 kts 291°
2026-05-06 21:56 48.34399 11.77703 1479 ft 23 kts 293°
2026-05-06 21:56 48.34460 11.77508 1471 ft 14 kts 314°
2026-05-06 21:56 48.34528 11.77557 1476 ft 13 kts 77°
2026-05-06 21:57 48.34538 11.77684 1474 ft 12 kts 83°
2026-05-06 21:57 48.34549 11.77827 1480 ft 17 kts 83°
2026-05-06 21:57 48.34563 11.78015 1478 ft 18 kts 83°
2026-05-06 21:57 48.34577 11.78192 1485 ft 17 kts 83°
2026-05-06 21:58 48.34590 11.78357 1485 ft 15 kts 83°
2026-05-06 21:58 48.34603 11.78525 1485 ft 19 kts 83°
2026-05-06 21:58 48.34619 11.78737 1485 ft 21 kts 83°
2026-05-06 21:58 48.34635 11.78943 1482 ft 19 kts 83°
2026-05-06 21:59 48.34650 11.79134 1476 ft 18 kts 83°
2026-05-06 21:59 48.34663 11.79313 1485 ft 17 kts 83°
2026-05-06 21:59 48.34676 11.79477 1485 ft 15 kts 83°
2026-05-06 21:59 48.34745 11.79552 1478 ft 13 kts
2026-05-06 22:00 48.34830 11.79561 1485 ft 12 kts
2026-05-06 22:00 48.34907 11.79548 1483 ft 11 kts 351°
2026-05-06 22:00 48.34975 11.79558 1485 ft 9 kts 29°
2026-05-06 22:00 48.35019 11.79623 1478 ft 9 kts 47°
2026-05-06 22:01 48.35067 11.79663 1484 ft 8 kts 11°
2026-05-06 22:01 48.35115 11.79685 1477 ft 7 kts 26°
2026-05-06 22:01 48.35134 11.79747 1484 ft 9 kts 82°
2026-05-06 22:01 48.35141 11.79832 1479 ft 8 kts 83°
2026-05-06 22:02 48.35147 11.79911 1485 ft 7 kts 83°
2026-05-06 22:02 48.35152 11.79981 1485 ft 6 kts 83°
2026-05-06 22:02 48.35159 11.80065 1480 ft 10 kts 83°
2026-05-06 22:02 48.35179 11.80147 1479 ft 8 kts 35°
2026-05-06 22:03 48.35230 11.80149 1480 ft 7 kts 353°
2026-05-06 22:03 48.35276 11.80141 1477 ft 6 kts 354°
2026-05-06 22:03 48.35317 11.80134 1479 ft 6 kts 353°
2026-05-06 22:03 48.35365 11.80125 1480 ft 11 kts 351°
2026-05-06 22:04 48.35455 11.80102 1475 ft 13 kts 353°
2026-05-06 22:04 48.35509 11.80076 1476 ft 5 kts 298°
2026-05-06 22:04 48.35509 11.80024 1485 ft 3 kts 263°
2026-05-06 22:04 48.35508 11.80010 1485 ft 0 kts 263°